Location: Garden of he Gods Recreation Area
(37.6010°N, 88.3780°W)
Time: 00:47:41
(UTC-05:00)

Hubble Space Telescope - Visible Passes

Search period start: 26 April 2018 00:00
Search period end: 06 May 2018 00:00
Orbit: 537 x 541 km, 28.5° (Epoch: 25 April)

Date Brightness Start Highest point End Pass type
(mag) Time Alt. Az. Time Alt. Az. Time Alt. Az.
26 Apr 2.8 20:16:57 10° S 20:18:40 12° SSE 20:20:24 10° SE visible
27 Apr 2.7 20:05:58 10° SSW 20:08:15 14° SSE 20:10:31 10° SE visible
27 Apr 3.0 21:45:34 10° SW 21:46:35 15° SW 21:46:35 15° SW visible
28 Apr 2.6 21:35:09 10° SW 21:37:04 19° SSW 21:37:04 19° SSW visible
29 Apr 2.3 21:24:45 10° SW 21:27:28 22° SSW 21:27:28 22° SSW visible
30 Apr 2.2 21:14:24 10° SW 21:17:38 22° S 21:17:47 22° S visible
01 May 2.3 21:04:04 10° WSW 21:07:13 21° S 21:08:03 20° S visible
02 May 2.5 20:53:48 10° WSW 20:56:49 20° S 20:58:17 16° SSE visible
03 May 2.6 20:43:35 10° SW 20:46:24 18° SSW 20:48:30 13° SSE visible
04 May 2.8 20:33:25 10° SW 20:35:58 16° SSW 20:38:31 10° SSE visible
05 May 3.0 20:23:24 10° SW 20:25:32 14° SSW 20:27:41 10° SSE visible
